sat.trackr.live / text

‹ back to catalog

STARLINK-32524

NORAD 62159 · 2024-224W

PAYLOAD ACTIVE UNKNOWN

§ Identity

Operator
Country
US
Launch date
2024-11-30
Launch site
AFETR
Launch vehicle
Mass (kg)
RCS (m²)

Purposes: comms

External: N2YO · Heavens-Above · Gunter

§ Orbital elements

Epoch: 2026-05-25T03:36:48.332160Z

Period
94.27 min
Inclination
43.0046°
Eccentricity
0.0001548
Mean motion
15.27564476 rev/d
Perigee alt
482.0 km
Apogee alt
484.2 km
Semi-major
6,861.2 km
B*
5.6540e-4
RAAN
89.7621°
Arg perigee
265.7850°
Mean anomaly
94.2825°
Rev number
8,397

§ Raw data

STARLINK-325241 62159U 24224W   26145.15055940  .00015321  00000+0  56540-3 0  99982 62159  43.0046  89.7621 0001548 265.7850  94.2825 15.27564476 83970

JSON: /api/v1/satellites/62159 · /tle

For live sub-satellite position, see the globe view (requires WebGL).

§ Visibility from observer

Set your observer location to see the next 7 days of passes ≥ 10°. The values pass through the URL so the page stays shareable.

No JS? Fill the form by hand. The geolocation button needs JavaScript.